Location: Spaichingen
(48.0400°N, 8.4300°E)
Time: 19:50:18
(UTC+02:00)

Tiangong 2 - Pass Details

Date: 26 May 2019
Orbit: 376 x 388 km, 42.8° (Epoch: 16 June)

Event Time Altitude Azimuth Distance (km) Brightness Sun altitude
Rises 23:22:44 0° 265° (W) 2,236 5.3 -15.7°
Reaches altitude 10° 23:25:18 10° 243° (WSW) 1,381 3.9 -15.9°
Enters shadow 23:26:28 15° 222° (SW) 1,133 3.2 -16.0°
